Location: *
(58.7167°N, 26.1833°E)
Time: 04:34:01
(UTC+00:00)

Cosmos 1726 Rocket - Pass Details

Date: 25 August 2019
Orbit: 604 x 629 km, 82.5° (Epoch: 18 September)

Event Time Altitude Azimuth Distance (km) Brightness Sun altitude
Exits shadow 23:27:42 46° 192° (SSW) 845 3.8 -19.2°
Maximum altitude 23:29:01 90° 304° (WNW) 631 3.5 -19.2°
Drops below altitude 10° 23:33:29 10° 13° (NNE) 2,014 7.4 -19.0°
Sets 23:35:44 0° 14° (NNE) 2,928 8.7 -18.9°
